User: anonymous   Login
Location: Arrington
(35.8681°N, 86.7092°W)
Time: 20:47:38
(UTC+00:00)
Language:

Cosmos 2322 Rocket - Orbit

View from above orbital plane
View from above orbital plane
View from above satellite
View from above satellite

Ground track
Ground track

The orbit data is extracted from the following two-line orbital elements,

1 23705U 95058B   20020.58181716 -.00000094 +00000-0 -23853-4 0  9995
2 23705 071.0208 201.3044 0014821 290.4119 069.5412 14.15135861250912
Epoch (UTC): 20 January 2020 13:57:49
Eccentricity: 0.0014821
inclination: 71.0208°
perigee height: 831 km
apogee height: 852 km
right ascension of ascending node: 201.3044°
argument of perigee: 290.4119°
revolutions per day: 14.15135861
mean anomaly at epoch: 69.5412°
orbit number at epoch: 25091

The dashed part of the orbit path shows where the satellite is in the earth's shadow,  

DLR